{"data":{"norad_id":38764,"intl_designator":"2012-048G","name":"CINEMA","alt_names":[],"object_type":"PAYLOAD","status":"ACTIVE","operator":null,"country":"US","launch_date":"2012-09-13","launch_site_code":"AFWTR","launch_vehicle":null,"mission":null,"orbit_class":"UNKNOWN","rcs_meters":null,"size_class":null,"mass_kg":null,"dimensions":null,"purposes":[],"wikipedia_slug":null,"has_3d_model":false,"image_url":null,"decayed_at":null,"tle_current":{"epoch":"2026-09-19T08:07:01.227360Z","epoch_age_seconds":129542,"freshness":"FRESH","line1":"1 38764U 12048G   26262.33820865  .00029843  00000+0  45404-3 0  9991","line2":"2 38764  64.6395 122.9305 0024049 144.1541 216.1221 15.54085697131846","mean_motion":15.54085697,"eccentricity":0.0024049,"inclination_deg":64.6395,"raan_deg":122.9305,"arg_perigee_deg":144.1541,"mean_anomaly_deg":216.1221,"bstar":0.00045404,"rev_number":13184,"period_min":92.658982884906,"perigee_km":388.49938495946,"apogee_km":421.12401160846,"semimajor_km":6782.948698284,"source":"CELESTRAK","updated_at":"2026-09-20T09:00:13.864358Z"}}}